• In Deutschland
  • Länderverzeichnis
  • Für 7 Tage
  • Wassertemperatur
  • Satellitenkarten
  • Wetterkarte
  • Widgets
  • user-avatar
    Anmelden

    Stündliche Wetter Saarlouis

    Heute, 18 Februar, Sonntag

    Zeit Temperatur Niederschläge Wind Luftdruck Luftfeuchtigkeit
    00:00 -1°C° 0 mm 0 m/S 752 mmHg 88%
    01:00 -1°C° 0 mm 0 m/S 752 mmHg 87%
    02:00 -1°C° 0 mm 0 m/S 752 mmHg 87%
    03:00 -1°C° 0 mm 0 m/S 752 mmHg 87%
    04:00 -1°C° 0 mm 0 m/S 752 mmHg 87%
    05:00 -1°C° 0 mm 1 m/S 752 mmHg 87%
    06:00 -1°C° 0 mm 1 m/S 752 mmHg 87%
    07:00 +1°C° 0 mm 1 m/S 753 mmHg 83%
    08:00 +2°C° 0 mm 1 m/S 753 mmHg 79%
    09:00 +3°C° 0 mm 1 m/S 753 mmHg 75%
    10:00 +3°C° 0 mm 2 m/S 753 mmHg 69%
    11:00 +4°C° 0 mm 2 m/S 752 mmHg 64%
    12:00 +5°C° 0 mm 2 m/S 752 mmHg 59%
    13:00 +5°C° 0 mm 2 m/S 752 mmHg 60%
    14:00 +5°C° 0 mm 2 m/S 752 mmHg 60%
    15:00 +5°C° 0 mm 2 m/S 751 mmHg 61%
    16:00 +4°C° 0 mm 2 m/S 751 mmHg 67%
    17:00 +2°C° 0 mm 2 m/S 751 mmHg 74%
    18:00 +1°C° 0 mm 2 m/S 751 mmHg 80%
    19:00 -1°C° 0 mm 2 m/S 751 mmHg 82%
    20:00 -1°C° 0 mm 2 m/S 751 mmHg 83%
    21:00 +1°C° 0 mm 1 m/S 751 mmHg 85%
    22:00 0°C° 0 mm 1 m/S 751 mmHg 86%
    23:00 0°C° 0 mm 1 m/S 750 mmHg 87%

    Morgen, 19 Februar, Montag

    Zeit Temperatur Niederschläge Wind Luftdruck Luftfeuchtigkeit
    00:00 0°C° 0 mm 1 m/S 750 mmHg 88%
    01:00 0°C° 0 mm 1 m/S 750 mmHg 89%
    02:00 0°C° 0 mm 1 m/S 749 mmHg 89%
    03:00 0°C° 0 mm 1 m/S 749 mmHg 90%
    04:00 0°C° 0 mm 1 m/S 749 mmHg 90%
    05:00 0°C° 0 mm 1 m/S 749 mmHg 90%
    06:00 -1°C° 0 mm 1 m/S 749 mmHg 90%
    07:00 +1°C° 0 mm 1 m/S 749 mmHg 85%
    08:00 +2°C° 0 mm 1 m/S 749 mmHg 80%
    09:00 +3°C° 0 mm 1 m/S 749 mmHg 75%
    10:00 +4°C° 0 mm 1 m/S 748 mmHg 69%
    11:00 +5°C° 0 mm 1 m/S 748 mmHg 64%
    12:00 +6°C° 0 mm 1 m/S 748 mmHg 59%
    13:00 +6°C° 0 mm 1 m/S 748 mmHg 58%
    14:00 +6°C° 0 mm 1 m/S 747 mmHg 58%
    15:00 +6°C° 0 mm 1 m/S 747 mmHg 57%
    16:00 +5°C° 0 mm 1 m/S 747 mmHg 64%
    17:00 +3°C° 0 mm 1 m/S 747 mmHg 70%
    18:00 +1°C° 0 mm 0 m/S 747 mmHg 76%
    19:00 0°C° 0 mm 0 m/S 747 mmHg 77%
    20:00 0°C° 0 mm 0 m/S 747 mmHg 78%
    21:00 0°C° 0 mm 0 m/S 747 mmHg 79%
    22:00 0°C° 0 mm 0 m/S 746 mmHg 79%
    23:00 0°C° 0 mm 0 m/S 746 mmHg 79%

    übermorgen, 20 Februar, Dienstag

    Zeit Temperatur Niederschläge Wind Luftdruck Luftfeuchtigkeit
    00:00 0°C° 0 mm 0 m/S 746 mmHg 79%
    01:00 0°C° 0,1 mm 0 m/S 745 mmHg 79%
    02:00 +1°C° 0,1 mm 1 m/S 745 mmHg 79%
    03:00 +1°C° 0,1 mm 1 m/S 745 mmHg 79%
    04:00 +1°C° 0,2 mm 1 m/S 744 mmHg 80%
    05:00 +1°C° 0,2 mm 1 m/S 744 mmHg 81%
    06:00 +1°C° 0,2 mm 1 m/S 744 mmHg 82%
    07:00 +2°C° 0,1 mm 1 m/S 744 mmHg 80%
    08:00 +3°C° 0,1 mm 1 m/S 744 mmHg 78%
    09:00 +3°C° 0,1 mm 1 m/S 745 mmHg 76%
    10:00 +4°C° 0 mm 1 m/S 745 mmHg 71%
    11:00 +5°C° 0 mm 1 m/S 745 mmHg 67%
    12:00 +6°C° 0 mm 1 m/S 745 mmHg 62%
    13:00 +6°C° 0 mm 1 m/S 745 mmHg 62%
    14:00 +5°C° 0 mm 2 m/S 745 mmHg 62%
    15:00 +6°C° 0 mm 2 m/S 744 mmHg 62%
    16:00 +4°C° 0 mm 2 m/S 745 mmHg 67%
    17:00 +3°C° 0 mm 2 m/S 745 mmHg 71%
    18:00 +1°C° 0 mm 2 m/S 745 mmHg 76%
    19:00 +1°C° 0 mm 2 m/S 746 mmHg 78%
    20:00 -1°C° 0 mm 2 m/S 746 mmHg 79%
    21:00 -1°C° 0 mm 2 m/S 746 mmHg 80%
    22:00 -2°C° 0 mm 2 m/S 747 mmHg 81%
    23:00 -2°C° 0 mm 2 m/S 747 mmHg 82%

    21 Februar, Mittwoch

    Zeit Temperatur Niederschläge Wind Luftdruck Luftfeuchtigkeit
    00:00 -2°C° 0 mm 2 m/S 747 mmHg 83%
    01:00 -2°C° 0 mm 2 m/S 747 mmHg 84%
    02:00 -2°C° 0 mm 3 m/S 747 mmHg 85%
    03:00 -4°C° 0 mm 3 m/S 747 mmHg 85%
    04:00 -4°C° 0 mm 3 m/S 748 mmHg 85%
    05:00 -4°C° 0 mm 3 m/S 748 mmHg 85%
    06:00 -4°C° 0 mm 3 m/S 748 mmHg 86%
    07:00 -2°C° 0 mm 3 m/S 748 mmHg 80%
    08:00 -2°C° 0 mm 4 m/S 748 mmHg 74%
    09:00 -1°C° 0 mm 4 m/S 748 mmHg 68%
    10:00 0°C° 0 mm 4 m/S 748 mmHg 64%
    11:00 +1°C° 0 mm 4 m/S 748 mmHg 59%
    12:00 +3°C° 0 mm 4 m/S 748 mmHg 55%
    13:00 +3°C° 0 mm 4 m/S 747 mmHg 55%
    14:00 +3°C° 0 mm 4 m/S 747 mmHg 55%
    15:00 +2°C° 0 mm 5 m/S 747 mmHg 55%
    16:00 +1°C° 0 mm 4 m/S 747 mmHg 60%
    17:00 -1°C° 0 mm 4 m/S 747 mmHg 66%
    18:00 -1°C° 0 mm 3 m/S 746 mmHg 71%
    19:00 -1°C° 0 mm 3 m/S 747 mmHg 73%
    20:00 -2°C° 0 mm 3 m/S 747 mmHg 74%
    21:00 -3°C° 0 mm 4 m/S 747 mmHg 76%
    22:00 -3°C° 0 mm 4 m/S 746 mmHg 76%
    23:00 -3°C° 0 mm 4 m/S 746 mmHg 77%

    22 Februar, Donnerstag

    Zeit Temperatur Niederschläge Wind Luftdruck Luftfeuchtigkeit
    00:00 -4°C° 0 mm 4 m/S 746 mmHg 78%
    01:00 -4°C° 0 mm 4 m/S 745 mmHg 79%
    02:00 -4°C° 0 mm 4 m/S 745 mmHg 79%
    03:00 -5°C° 0 mm 5 m/S 745 mmHg 79%
    04:00 -5°C° 0 mm 5 m/S 744 mmHg 79%
    05:00 -5°C° 0 mm 5 m/S 744 mmHg 79%
    06:00 -5°C° 0 mm 5 m/S 744 mmHg 79%
    07:00 -5°C° 0 mm 6 m/S 744 mmHg 74%
    08:00 -4°C° 0 mm 6 m/S 744 mmHg 69%
    09:00 -3°C° 0 mm 7 m/S 744 mmHg 64%
    10:00 -2°C° 0 mm 7 m/S 743 mmHg 59%
    11:00 -1°C° 0 mm 7 m/S 743 mmHg 54%
    12:00 0°C° 0 mm 7 m/S 743 mmHg 50%
    13:00 0°C° 0 mm 7 m/S 743 mmHg 50%
    14:00 0°C° 0 mm 7 m/S 742 mmHg 50%
    15:00 0°C° 0 mm 7 m/S 742 mmHg 51%
    16:00 -1°C° 0 mm 6 m/S 742 mmHg 55%
    17:00 -1°C° 0 mm 5 m/S 742 mmHg 59%
    18:00 -4°C° 0 mm 5 m/S 742 mmHg 63%
    19:00 -4°C° 0 mm 5 m/S 742 mmHg 64%
    20:00 -4°C° 0 mm 5 m/S 742 mmHg 64%
    21:00 -5°C° 0 mm 5 m/S 742 mmHg 65%
    22:00 -5°C° 0 mm 5 m/S 742 mmHg 65%
    23:00 -5°C° 0 mm 5 m/S 742 mmHg 65%

    23 Februar, Freitag

    Zeit Temperatur Niederschläge Wind Luftdruck Luftfeuchtigkeit
    00:00 -5°C° 0 mm 5 m/S 741 mmHg 65%
    01:00 -5°C° 0 mm 5 m/S 741 mmHg 65%
    02:00 -6°C° 0 mm 5 m/S 741 mmHg 65%
    03:00 -6°C° 0 mm 5 m/S 741 mmHg 65%
    04:00 -6°C° 0 mm 5 m/S 741 mmHg 65%
    05:00 -6°C° 0 mm 5 m/S 741 mmHg 65%
    06:00 -6°C° 0 mm 5 m/S 740 mmHg 65%
    07:00 -5°C° 0 mm 5 m/S 741 mmHg 62%
    08:00 -5°C° 0 mm 5 m/S 741 mmHg 59%
    09:00 -4°C° 0 mm 6 m/S 741 mmHg 56%
    10:00 -2°C° 0 mm 5 m/S 741 mmHg 53%
    11:00 -1°C° 0 mm 5 m/S 740 mmHg 49%
    12:00 0°C° 0 mm 5 m/S 740 mmHg 46%
    13:00 0°C° 0 mm 5 m/S 740 mmHg 45%
    14:00 0°C° 0 mm 5 m/S 740 mmHg 45%
    15:00 0°C° 0 mm 5 m/S 740 mmHg 45%
    16:00 -2°C° 0 mm 4 m/S 740 mmHg 48%
    17:00 -3°C° 0 mm 4 m/S 740 mmHg 52%
    18:00 -4°C° 0 mm 3 m/S 740 mmHg 56%
    19:00 -4°C° 0 mm 3 m/S 741 mmHg 56%
    20:00 -5°C° 0 mm 3 m/S 741 mmHg 56%
    21:00 -5°C° 0 mm 3 m/S 741 mmHg 56%
    22:00 -5°C° 0 mm 3 m/S 741 mmHg 59%
    23:00 -5°C° 0 mm 3 m/S 741 mmHg 61%
    Mehr zeigen